Погода в Батон-Руж

США     30°26′45″N   91°05′23″W
темп.,
°C
ветер,
м/с
пор.,
м/с
влажн.,
%
обл.,
%
осадки,
мм/ч
давл.,
гПа
погр.,
м
21 октября, чт
чт2101:00+21юв229775 0.0 101859
04:00+21юв119813 0.0 101812
07:00+21ссв119813 0.0 102011
10:00+25ссз12810 0.0 1020397
13:00+30ссз115742 0.0 10191240
16:00+30ссз125218 0.0 10161655
19:00+25ссв117063 0.0 101717
22:00+24ююв1174100 0.1 101834
22 октября, пт
пт2201:00+23сз018621 1.0 101718
04:00+21с00911 0.3 101612
07:00+20сз11935 0.3 101724
10:00+24св12775 0.0 1019368
13:00+29зюз01585 0.1 10171053
16:00+30ссз11506 0.1 10151752
19:00+25в227238 0.1 101545
22:00+22юв23849 0.5 101679
23 октября, сб
сб2301:00+21ююв12891 0.6 101656
04:00+21ю11932 0.0 101538
07:00+20юв11940 0.0 101626
10:00+25юв23780 0.0 1017493
13:00+29юв34520 0.0 10161432
16:00+29юв35511 0.0 10141663
19:00+23вюв37750 0.0 1015232
22:00+21юв39862 0.0 1016382
24 октября, вс
вс2401:00+20юв289411 0.0 1015291
04:00+20вюв289614 0.0 1014278
07:00+20вюв299722 0.0 1015281
10:00+25юв487570 0.0 1016765
13:00+29ююв465679 0.0 10151472
16:00+29ююв465720 0.0 10131631
19:00+24юв278518 0.6 1014271
22:00+22юв2991100 0.0 1015358
25 октября, пн
пн2501:00+22юв289577 0.0 1015280
04:00+22юв2797100 0.0 1015213
07:00+22юв2598100 0.0 1015154
10:00+25ююв2484100 0.0 1016418
13:00+29ю3464100 0.1 10141288
16:00+28ю2371100 0.3 1013511
19:00+25ююв2483100 0.6 101490
22:00+24ю2691100 0.3 1015173